Regional Weather Roundup
Issued by NWS Upton, NY

Current Version | Previous Version | Graphics & Text | Print | Product List | Glossary Off
Versions: 1 2 3 4 5 6 7 8 9 10 11 12 13 14 15 16 17 18 19 20 21 22 23 24 25 26 27 28 29 30 31 32 33 34 35 36 37 38 39 40 41 42 43 44 45 46 47 48 49 50

000
ASUS41 KOKX 292004
RWROKX

REGIONAL WEATHER ROUNDUP
NATIONAL WEATHER SERVICE NEW YORK NY
400 PM EDT FRI JUL 29 2016

NOTE: "FAIR" INDICATES FEW OR NO CLOUDS BELOW 12,000 FEET WITH NO
SIGNIFICANT WEATHER AND/OR OBSTRUCTIONS TO VISIBILITY.

NYZ071-072-176-178-NJZ106-104-292100-
NEW YORK CITY METRO AREA

CITY           SKY/WX    TMP DP  RH WIND       PRES   REMARKS
Central Park   SUNNY     82  68  62 CALM      29.87S
LaGuardia APRT MOSUNNY   83  68  60 NE8       29.83S
Kennedy INTL   MOSUNNY   84  66  54 N7        29.84S
Newark/Liberty MOSUNNY   86  67  52 NE5       29.83R
Bronx Bot Gard   N/A     81  66  61 SE3       29.85F
Wall St Helipt MOCLDY    86  70  58 E3        29.84S HX  90
Teterboro      MOSUNNY   85  67  54 E7        29.82R
$$

NYZ177-179-078>081-292100-
LONG ISLAND NEW YORK

CITY           SKY/WX    TMP DP  RH WIND       PRES   REMARKS
Farmingdale    MOSUNNY   83  67  58 N9        29.83S
MacArthur/ISP  MOSUNNY   82  67  60 N9        29.82S
Shirley        SUNNY    N/A N/A N/A N8        29.83S
Riverhead      NOT AVBL
Westhampton    SUNNY     81  65  58 NE15      29.83S
Southhampton     N/A     82  70  65 E7        29.77S
Bridgehampton    N/A     79  72  78 E2        29.81S
East Hampton   FAIR      79  69  72 NE7       29.81S
Montauk          N/A     76  69  79 NE6       29.82S
$$

NYZ052-065-067-292100-
HUDSON VALLEY

CITY           SKY/WX    TMP DP  RH WIND       PRES   REMARKS
White Plains   MOSUNNY   80  70  71 S7        29.84S
Newburgh       MOSUNNY   88  68  51 NE6       29.86R HX  91
Montgomery     MOSUNNY   86  67  52 NE6       29.84S
Poughkeepsie   SUNNY     88  65  46 N7        29.82R HX  90
Albany         MOSUNNY   87  63  44 N10       29.85S
$$

NJZ001-105-106-008-010-013-015-019>022-104-292100-
NEW JERSEY

CITY           SKY/WX    TMP DP  RH WIND       PRES   REMARKS
Newark/Liberty MOSUNNY   86  67  52 NE5       29.83R
Teterboro      MOSUNNY   85  67  54 E7        29.82R
Caldwell       MOSUNNY   86  67  52 E3        29.84S
Morristown     PTSUNNY   84  68  58 NE9       29.84S
Somerville     MOSUNNY   88  65  46 N6        29.83R HX  90
Linden         MOCLDY    84  64  50 CALM      29.86R
Sussex         SUNNY     86  68  54 E3        29.86R
Abdover          N/A     85  66  53 CALM      29.87R
Trenton        PTSUNNY   85  70  60 E6        29.85S
Millville      PTSUNNY   86  67  52 N7        29.85R
Atlantic City  MOSUNNY   84  68  58 N9        29.85R
Wrightstown    MOSUNNY   82  69  66 NE7       29.83S
Toms River     CLOUDY    80  70  71 E6        29.87R
Belmar         PTSUNNY   79  69  71 NE6       29.87R
$$

PAZ047>061-062-071-292100-
EASTERN PENNSYLVANIA

CITY           SKY/WX    TMP DP  RH WIND       PRES   REMARKS
Philadelphia   PTSUNNY   86  66  51 N8        29.85R
Allentown      SUNNY     89  66  46 VRB5      29.85F HX  91
Scranton       SUNNY     90  63  40 NW7       29.87F HX  91
$$

CTZ002-004>006-009-010-012-RIZ004-006-007-MAZ004-011-015-292100-
SOUTHERN NEW ENGLAND
 IN CT

CITY           SKY/WX    TMP DP  RH WIND       PRES   REMARKS
Bradley INTL   PTSUNNY   90  62  39 N9        29.81F HX  90
Hartford       MOSUNNY   88  66  48 SE6       29.80F HX  90
Danbury        MOSUNNY   84  67  56 E6        29.85S
Wtrbury/Oxford NOT AVBL
Bridgeport     SUNNY     81  67  62 S7        29.83S
Meriden        MOSUNNY   87  64  46 CALM      29.81F
New Haven      MOSUNNY   79  68  69 S9        29.83R
Chester        FAIR      82  64  54 NE5G15    29.83S
Groton         MOSUNNY   85  67  54 NE12      29.80S
Wilimantic     MOSUNNY   86  65  49 E8        29.82F

 IN RI

CITY           SKY/WX    TMP DP  RH WIND       PRES   REMARKS
Providence     MOSUNNY   82  68  62 E10       29.82F
Block Island   CLOUDY    74  71  91 NE9       29.81F
Westerly       MOSUNNY   83  67  58 NE9       29.81F
 IN MA

CITY           SKY/WX    TMP DP  RH WIND       PRES   REMARKS
Boston         MOSUNNY   76  70  82 E16       29.83F
Worchester     SUNNY     83  60  45 VRB7      29.86F
Westfield      PTSUNNY   87  62  43 N9        29.81S
Provincetown   CLOUDY    75  72  90 NE8       29.84S
Nantucket      CLOUDY    71  66  84 NE16      29.81F
$$

ANZ330-335-338-340-345-350-353-355-292100-
COASTAL MARINE OBSERVATIONS


STATION/POSITION TIME  SKY/WX   TEMP    WIND        PRES    VSBY  WAVE
                                AIR SEA DIR/SP/G                  HT/PER
                 (UTC)          (F)     (DEG/KT/KT) (MB)    (MI)  (FT/S)
NY HARB ENTRANCE 1850            73 72   30/  8/ 10 1010.0          3/ 4
20S FIRE ISLAND  1850            72 72   40/ 17/ 21 1009.1          4/ 5
GREAT SOUTH BAY  1930            77 81   20/  6/ 12   N/A
23 SSW MONTAUK P 1850            71 71   40/ 23/ 27 1008.7          4/ 5
15 E BARNEGAT LI 1900               78                N/A           5/ 6
HUDSON CANYON    1850            77 79              1006.3          2/ 5
KINGS POINT      1900            80 74              1010.1
EXECUTION ROCKS  1900            75      70/  8/ 10   N/A
CENTRAL LI SOUND 1900            75 76   60/  2/  4   N/A           1/ 4
EASTERN LI SOUND 1900            75 69   70/  4/  6   N/A
ROBBINS REEF     1900            79     100/  3/  3 1009.5
$$


>>>>>>>>>>>>>>>>>>>>>>>>>>>> KEY <<<<<<<<<<<<<<<<<<<<<<<<<<<
>                                                          <
>     SKY/WX - Sky Condition/Present Weather               <
>     TMP    - Temperature in Fahrenheit                   <
>     DP     - Dew Point in Fahrenheit                     <
>     RH     - Relative Humidity in Percent                <
>     WIND   - Direction (from) and Speed in MPH           <
>     PRES   - Mean Sea Level Pressure (inches of Hg)      <
>     WCI    - Wind Chill Index                            <
>     VSB    - VISIBILITY IN MILES                         <
>     HX     - HEAT INDEX                                  <
>     TC     - TEMPERATURE IN CELSIUS                      <
>     VRB    - VARIABLE WIND DIRECTION                     <
>                                                          <
>>>>>>>>>>>>>>>>>>>>>>>>>>>> KEY <<<<<<<<<<<<<<<<<<<<<<<<<<<



USA.gov is the U.S. government's official web portal to all federal, state and local government web resources and services.